AirNav   ATP
 
 512 users online  

NY1 Kline Kill Airport
Ghent, New York, USA

GOING TO GHENT?


FAA INFORMATION EFFECTIVE 11 OCTOBER 2018

Location

FAA Identifier: NY1
Lat/Long: 42-21-00.3060N / 073-38-13.4270W
42-21.005100N / 073-38.223783W
42.3500850 / -73.6370631
(estimated)
Elevation: 380 ft. / 116 m (estimated)
Variation: 14W (1985)
From city: 2 miles N of GHENT, NY
Time zone: UTC -4 (UTC -5 during Standard Time)
Zip code: 12184

Airport Operations

Airport use: Open to the public
Activation date: 01/1947
Control tower: no
ARTCC: BOSTON CENTER
FSS: BURLINGTON FLIGHT SERVICE STATION
NOTAMs facility: BTV (NOTAM-D service available)
Attendance: UNATNDD
Wind indicator: yes
Segmented circle: no

Airport Communications

CTAF: 122.9
WX AWOS-3 at 1B1 (5 nm SW): 133.525 (518-828-2577)
WX ASOS at PSF (16 nm E): 135.375 (413-499-3273)

Nearby radio navigation aids

VOR radial/distance  VOR name  Freq  Var
ALBr176/24.9ALBANY VORTAC115.3013W
CTRr290/30.7CHESTER VOR/DME115.1013W
PWLr009/34.9PAWLING VOR/DME114.3012W

 
NDB name  Hdg/Dist  Freq  Var  ID
PHILMONT046/7.027213WPFH .--. ..-. ....
GREAT BARRINGTON328/14.439514WGBR --. -... .-.
HUNTER171/33.035614WHEU .... . ..-

Airport Services

Parking: hangars and tiedowns
Airframe service: MINOR
Powerplant service: MINOR
Bottled oxygen: NONE
Bulk oxygen: NONE

Runway Information

Runway 1/19

Dimensions: 4000 x 75 ft. / 1219 x 23 m
Surface: turf, in good condition
RUNWAY 1  RUNWAY 19
Traffic pattern: leftleft
Obstructions: 26 ft. trees, 96 ft. from runway, 70 ft. left of centerline, 3:1 slope to clear40 ft. pline, 100 ft. left of centerline

Airport Ownership and Management from official FAA records

Ownership: Privately-owned
Owner: KLINE KILL AIRPORT INC
PO BOX 271
CHATHAM, NY 12037
Phone 518-527-2762
ALTN CTC FOR ARPT CONDS CALL GEORGE KERNER AT (518) 527-2762.
Manager: GEORGE KERNER
PO BOX 271
CHATHAM, NY 12037
Phone 518-527-2762
OR PETER NELSON (518)392-2377

Airport Operational Statistics

Aircraft based on the field: 39
Single engine airplanes: 39
    
Aircraft operations: avg 75/month *
89% local general aviation
11% transient general aviation
* for 12-month period ending 24 July 2017

Additional Remarks

UNMKD TURF AREA ADJ TO RY MAY BE USED FOR TWY ON NORTH & SOUTH ENDS. TURF GRADES NEAR SOUTH PAVED APRON UNSUITABLE FOR ACFT MOVEMENT.
RY 19 HAS +16 FT ROAD, 22 FT FM RY, AT CNTRLN.

Instrument Procedures

There are no published instrument procedures at NY1.

Some nearby airports with instrument procedures:

1B1 - Columbia County Airport (5 nm SW)
KGBR - Walter J Koladza Airport (14 nm SE)
4B0 - South Albany Airport (15 nm NW)
KPSF - Pittsfield Municipal Airport (16 nm E)
KALB - Albany International Airport (25 nm N)
 
Loc | Ops | Rwys | IFR | FBO | Links
Com | Nav | Svcs | Stats | Notes


 
Area around NY1 (Kline Kill Airport)
 
Road maps at: MapQuest Bing Google
 
Aerial photo
WARNING: Photo may not be current or correct
Aerial photo of NY1 (Kline Kill Airport)
Do you have a better or more recent aerial photo of Kline Kill Airport that you would like to share? If so, please send us your photo.

 
Sectional chart

 
Airport distance calculator
Flying to Kline Kill Airport? Find the distance to fly.

From to NY1

Sunrise and sunset
Times for 21-Oct-2018
 Local
(UTC-4)
 Zulu
(UTC)
Morning civil twilight06:4710:47
Sunrise07:1511:15
Sunset18:0322:03
Evening civil twilight18:3222:32

Current date and time
Zulu (UTC)  21-Oct-2018 11:52:20
Local (UTC-4)  21-Oct-2018 07:52:20
 
METAR
KPSF 
16nm E 
211107Z AUTO 31011G20KT 10SM BKN028 BKN035 OVC120 04/M02 A2973 RMK AO2 T00441017
KALB 
25nm N 
211051Z 30013KT 10SM BKN044 BKN180 BKN210 04/M02 A2981 RMK AO2 SLP097 T00441022
20N 
26nm SW 
SuperAWOS
211115Z AUTO 02011G17KT 310V090 10SM 06/M03 A2981
KAQW 
30nm NE 
211052Z AUTO 10SM SCT036 BKN120 05/M01 A2974 RMK AO2 SLP075 T00501006
KSCH 
32nm N 
210051Z 24003KT 10SM OVC095 08/06 A2961 RMK LAST
TAF
KPSF 
16nm E 
210534Z 2106/2206 30005KT P6SM VCSH OVC080 FM211000 31010KT P6SM SCT025 BKN050 FM211400 30016G27KT P6SM SCT050 FM220000 29008KT P6SM SCT050
NOTAMs
Click for the latest NOTAMs
NOTAMs are issued by the DoD/FAA and will open in a separate window not controlled by AirNav.

 

 
 

Would you like to see your business listed on this page?

 If your business provides an interesting product or service to pilots, flight crews, aircraft, or users of the Kline Kill Airport, you should consider listing it here.  To start the listing process, click on the button below
 
Add a business
 

Other Pages about Kline Kill Airport

Update a link
 
Copyright © AirNav, LLC. All rights reserved. Privacy Policy  Contact